Wind_Speed
37 37 37 38 37 37 35 34 32 30 28 27 26 25 22 20 18 18 18 17 17 17 17 16 15 14 14 13 13 14 14 13 12 12 11 11 10 10 10 9 9 9
35 35 35 36 36 36 35 34 32 30 28 27 26 25 23 21 20 19 18 18 17 17 17 17 16 16 15 15 15 15 15 14 13 13 12 12 11 11 10 10 10 10
35 35 35 35 35 35 34 33 32 30 29 27 26 26 25 23 22 20 19 18 18 18 18 17 17 17 17 16 16 16 16 15 15 14 13 13 12 12 11 11 11 11
34 33 33 33 33 34 34 33 31 30 29 28 27 26 26 24 23 21 20 19 19 19 19 19 18 18 18 18 17 17 17 16 16 15 15 14 13 13 13 12 12 12
33 32 31 31 31 32 32 32 31 29 29 28 27 26 26 25 24 23 21 20 19 19 19 19 19 19 20 19 19 19 18 17 17 16 16 15 14 14 14 14 13 13
34 33 32 30 30 30 30 30 30 29 28 27 27 27 26 25 25 24 23 21 20 19 19 20 20 20 21 21 20 20 19 18 18 17 17 16 15 15 15 15 14 14
35 34 32 31 30 29 29 29 29 28 28 27 27 27 27 26 26 25 24 22 21 20 20 20 20 20 21 22 22 21 20 20 19 19 18 18 17 16 16 16 15 15
35 34 34 33 32 30 29 29 29 28 27 27 26 27 27 27 26 26 25 24 23 22 21 20 20 20 21 22 22 22 21 21 20 20 19 19 18 17 17 16 16 16
36 36 35 34 33 32 30 28 28 28 28 27 27 27 27 26 26 26 26 26 25 24 23 22 21 20 21 22 23 22 22 21 21 20 20 20 19 18 18 17 17 16
38 36 36 35 34 33 31 29 28 28 28 28 27 27 27 26 26 26 27 27 27 26 25 24 23 22 22 22 23 23 22 22 21 21 21 21 21 20 19 19 19 18
39 38 37 36 35 34 32 30 29 28 28 27 27 27 27 27 27 27 28 28 28 28 26 25 24 24 23 23 23 23 23 22 22 22 22 22 22 21 21 20 20 18
41 40 39 37 36 34 33 31 30 29 28 27 26 26 26 27 27 28 29 29 29 29 28 27 26 26 26 25 24 24 24 23 23 23 23 23 23 22 22 21 20 19
42 40 39 38 36 35 34 32 31 30 29 27 26 26 27 27 28 29 29 29 29 30 29 28 27 27 27 27 26 25 25 24 23 24 24 24 24 23 23 22 22 20
42 40 39 38 36 35 34 33 32 31 29 27 27 27 28 28 29 29 30 30 30 30 30 29 29 29 29 28 28 27 26 25 25 25 25 26 25 25 24 24 23 22
41 40 38 37 36 35 34 33 33 32 30 29 29 28 28 28 29 29 30 30 30 30 30 30 31 31 31 30 29 28 27 27 26 26 26 27 27 26 25 25 25 24
41 40 38 37 36 35 35 34 34 33 32 31 30 29 29 29 29 29 30 30 30 31 31 31 32 33 32 31 29 29 28 28 28 27 27 27 27 27 26 26 26 26
40 39 38 37 37 36 35 35 34 34 33 33 32 30 30 30 30 30 30 30 31 31 32 32 33 33 32 30 29 29 28 28 28 28 28 28 28 28 28 27 27 27
40 40 39 38 37 36 36 34 34 34 34 33 32 31 31 31 31 31 31 31 31 32 33 33 34 33 32 30 29 29 29 28 28 28 29 29 29 29 29 29 28 28
41 39 38 38 37 36 35 34 34 35 35 34 33 32 32 32 31 31 31 32 32 33 34 34 34 34 32 31 30 30 29 28 29 29 30 30 30 30 30 30 29 29
40 38 37 37 36 35 35 35 35 35 35 34 33 33 34 33 32 31 32 32 32 33 34 35 35 34 33 31 31 30 29 29 29 30 30 31 31 31 31 31 30 30
38 37 36 35 35 35 35 36 36 36 35 34 34 34 34 32 31 31 32 32 32 33 34 35 35 35 33 32 31 30 30 29 30 30 31 31 32 31 31 31 30 30
37 36 35 34 34 35 36 36 36 35 34 34 34 34 33 32 32 32 32 32 31 32 33 34 35 35 34 33 32 31 30 30 31 31 31 32 32 32 31 31 30 30
35 34 34 33 34 35 36 36 35 34 34 34 34 34 34 33 32 32 32 32 32 32 33 34 34 34 34 33 31 31 31 31 32 32 32 32 32 31 31 30 30 29
33 33 32 32 34 35 35 35 34 34 33 33 33 33 33 32 32 32 32 32 32 33 33 33 33 33 33 32 31 31 31 31 32 32 32 32 32 31 30 30 29 29
32 31 31 32 33 34 33 33 33 32 32 32 32 32 32 32 31 32 32 32 32 32 31 32 32 32 32 31 30 30 31 31 31 31 32 32 31 30 30 29 29 28
31 31 31 32 32 31 31 30 30 29 30 31 31 31 31 31 31 31 32 31 31 30 30 30 30 30 31 31 30 30 30 30 30 31 31 31 30 29 28 28 27 26
Wind_Direction
224 226 227 229 231 233 234 235 235 235 235 235 237 237 236 235 235 235 235 234 235 237 237 237 240 243 245 246 246 247 248 250 254 259 261 263 265 263 260 259 256 256
223 224 226 228 230 233 235 236 236 235 235 236 237 238 237 236 235 234 234 234 236 238 238 239 241 243 244 244 246 247 249 250 253 258 261 264 266 265 263 262 260 259
223 224 225 227 229 232 234 235 236 235 235 235 235 237 237 237 237 236 235 234 235 238 240 241 242 243 244 244 245 247 249 251 253 256 259 262 264 263 262 263 263 263
222 223 224 226 229 231 233 234 235 235 234 234 233 234 235 236 238 238 237 236 236 237 240 241 242 242 243 243 244 246 248 250 251 254 257 261 262 262 261 261 263 264
224 223 224 225 227 230 232 234 235 234 233 232 231 232 234 235 236 237 237 237 236 237 238 240 241 240 240 241 241 244 246 248 250 252 255 259 262 262 261 261 262 265
225 225 225 226 227 229 231 233 234 233 233 232 231 231 232 234 235 236 237 236 236 237 237 237 238 238 238 238 239 241 243 246 249 251 253 257 259 260 260 260 261 262
226 226 227 227 229 230 231 232 233 232 232 232 232 231 232 233 233 235 236 237 236 237 236 236 236 236 236 236 237 239 241 244 248 251 253 255 257 259 259 260 261 262
227 227 228 228 229 230 230 231 232 231 231 231 232 232 232 232 233 234 235 236 237 237 236 236 236 236 236 236 236 237 239 242 246 250 253 255 257 258 258 260 261 261
228 228 228 228 229 230 229 229 230 230 230 230 231 232 232 232 233 234 235 236 237 237 237 237 237 236 236 236 235 235 237 239 243 248 251 254 255 256 258 259 261 261
227 228 228 228 229 229 229 229 229 230 230 229 230 232 233 233 234 234 235 236 236 237 237 237 237 236 236 236 235 235 236 238 241 245 249 252 253 254 256 258 260 260
226 227 228 228 228 228 228 228 230 231 230 229 230 232 233 234 235 235 236 236 237 238 238 237 236 236 236 236 235 236 237 239 242 244 247 250 251 253 254 256 258 258
226 227 227 227 227 227 227 228 229 231 232 230 230 232 232 233 234 235 236 237 238 240 240 239 236 236 236 236 237 238 239 242 244 245 247 249 250 251 253 255 256 256
226 226 227 227 226 227 227 228 229 231 232 231 231 232 232 232 233 235 237 239 240 241 242 240 237 236 236 235 236 239 240 243 244 246 247 248 249 251 253 255 257 257
225 226 227 227 227 227 228 229 230 231 231 231 231 231 231 232 233 236 238 239 240 242 242 241 238 236 236 235 235 237 240 243 245 246 248 249 250 252 254 256 258 259
225 226 227 228 229 228 228 229 230 231 231 231 230 230 230 231 232 235 237 238 240 241 241 241 239 237 235 234 235 236 239 243 245 247 248 250 252 254 255 257 259 260
225 226 227 227 228 228 228 229 230 230 230 230 230 229 229 229 230 232 235 237 238 240 240 240 239 237 235 235 236 238 240 244 246 247 249 250 252 254 255 257 258 260
224 225 226 227 228 228 229 229 230 231 231 230 230 229 229 229 229 230 232 235 237 239 239 239 238 237 236 236 237 238 241 244 246 248 249 251 252 254 255 257 258 260
223 225 226 227 228 228 229 230 230 231 232 231 230 229 229 229 229 229 230 232 236 238 239 240 239 238 237 237 238 238 240 242 245 248 250 251 252 254 255 257 259 261
223 225 226 228 228 229 230 231 232 232 233 232 232 231 232 231 231 230 230 231 234 236 239 240 241 240 239 238 238 238 238 240 243 246 249 251 252 254 256 258 260 262
223 225 227 228 229 229 230 231 232 233 233 234 234 235 235 235 234 234 233 232 233 235 238 240 242 242 241 239 239 239 239 240 242 246 249 251 252 254 256 258 260 262
223 225 226 228 228 229 230 232 233 233 234 234 235 236 237 237 237 237 238 236 236 237 238 239 240 241 241 240 240 240 240 241 243 245 248 250 252 254 256 258 260 262
223 224 225 226 228 229 231 232 233 234 234 235 236 238 239 239 239 240 241 241 239 240 241 241 240 240 240 240 240 241 242 244 244 245 247 249 251 253 255 257 259 262
222 223 224 225 227 229 230 232 233 234 234 235 236 238 239 239 240 240 241 242 241 242 243 242 240 240 239 239 240 241 242 244 245 246 248 249 251 253 255 257 259 260
221 222 223 225 227 229 230 231 233 234 234 235 237 238 239 240 241 242 243 244 244 244 244 243 242 242 240 239 239 240 242 244 245 247 249 250 250 252 254 255 257 257
221 222 224 226 228 230 231 233 234 235 236 237 239 240 241 242 243 244 245 245 246 246 246 245 245 245 243 240 238 239 241 243 245 247 249 249 250 251 252 253 254 255
223 224 225 227 230 231 233 234 235 236 237 238 239 240 241 242 242 243 244 245 245 246 246 246 245 245 244 241 239 239 241 242 244 246 247 248 248 249 250 251 252 253
Height
1558 1561 1563 1566 1568 1571 1573 1575 1578 1580 1582 1584 1586 1588 1589 1591 1592 1593 1595 1596 1597 1598 1598 1599 1600 1601 1602 1603 1604 1605 1606 1606 1607 1608 1608 1609 1610 1610 1611 1611 1612 1612
1555 1558 1561 1563 1565 1568 1570 1573 1575 1577 1580 1582 1584 1586 1587 1589 1590 1591 1593 1594 1595 1596 1597 1598 1599 1600 1601 1601 1602 1603 1604 1605 1606 1607 1607 1608 1609 1609 1609 1610 1610 1611
1553 1555 1558 1560 1563 1565 1568 1570 1572 1575 1577 1579 1581 1583 1585 1586 1588 1589 1591 1592 1593 1594 1595 1596 1597 1598 1599 1600 1601 1602 1602 1603 1604 1605 1606 1607 1607 1608 1608 1609 1609 1610
1550 1552 1555 1558 1560 1563 1565 1567 1569 1572 1574 1576 1578 1580 1582 1584 1585 1587 1588 1589 1591 1592 1593 1594 1595 1596 1597 1598 1599 1600 1601 1602 1603 1604 1604 1605 1606 1606 1607 1607 1608 1608
1547 1550 1552 1555 1557 1560 1562 1564 1567 1569 1571 1573 1576 1578 1579 1581 1583 1584 1586 1587 1588 1590 1591 1592 1593 1594 1595 1596 1597 1598 1599 1600 1601 1602 1603 1603 1604 1605 1605 1606 1606 1607
1544 1547 1550 1552 1554 1557 1559 1561 1564 1566 1569 1571 1573 1575 1576 1578 1580 1582 1583 1585 1586 1587 1588 1589 1590 1592 1593 1594 1595 1596 1597 1598 1599 1600 1601 1602 1602 1603 1604 1604 1605 1605
1541 1544 1547 1549 1552 1554 1556 1558 1561 1563 1566 1568 1570 1572 1574 1575 1577 1579 1581 1582 1583 1585 1586 1587 1588 1589 1591 1592 1593 1594 1595 1596 1597 1598 1599 1600 1600 1601 1602 1602 1603 1604
1538 1541 1544 1546 1549 1551 1553 1555 1558 1560 1563 1565 1567 1569 1571 1573 1575 1576 1578 1579 1581 1582 1583 1585 1586 1587 1588 1589 1591 1592 1593 1594 1595 1596 1597 1598 1598 1599 1600 1600 1601 1602
1535 1537 1540 1543 1546 1548 1550 1553 1555 1557 1560 1562 1564 1566 1568 1570 1572 1574 1575 1577 1578 1579 1580 1582 1583 1585 1586 1587 1588 1590 1591 1592 1593 1594 1595 1595 1596 1597 1597 1598 1599 1600
1531 1534 1537 1539 1542 1545 1547 1550 1552 1554 1556 1559 1561 1563 1565 1567 1569 1571 1572 1574 1575 1576 1578 1579 1581 1582 1584 1585 1586 1588 1589 1590 1591 1592 1593 1593 1594 1595 1595 1596 1597 1598
1527 1530 1533 1535 1538 1541 1544 1547 1549 1551 1553 1555 1558 1560 1562 1564 1566 1568 1569 1570 1572 1573 1575 1576 1578 1580 1581 1582 1584 1585 1586 1588 1589 1590 1590 1591 1591 1592 1593 1594 1594 1595
1523 1526 1529 1531 1534 1537 1540 1543 1546 1548 1550 1552 1554 1557 1559 1561 1562 1564 1566 1567 1569 1570 1572 1574 1575 1577 1578 1579 1581 1582 1584 1585 1586 1587 1588 1588 1589 1590 1590 1591 1592 1593
1519 1522 1525 1528 1531 1534 1537 1540 1542 1544 1547 1549 1551 1553 1555 1557 1559 1560 1562 1564 1566 1567 1569 1570 1572 1574 1575 1576 1578 1579 1581 1582 1584 1585 1585 1586 1586 1587 1588 1588 1589 1590
1515 1518 1521 1525 1528 1531 1534 1536 1538 1541 1543 1546 1548 1550 1552 1554 1555 1557 1559 1561 1562 1564 1565 1567 1569 1570 1571 1573 1575 1576 1578 1579 1581 1582 1583 1583 1584 1584 1585 1586 1587 1587
1511 1515 1518 1521 1524 1527 1530 1533 1535 1538 1540 1542 1544 1546 1548 1550 1552 1554 1555 1557 1559 1560 1562 1563 1565 1566 1568 1569 1571 1573 1575 1576 1577 1579 1580 1580 1581 1582 1582 1583 1584 1585
1508 1511 1514 1517 1520 1523 1526 1529 1532 1534 1536 1538 1540 1542 1544 1546 1548 1550 1551 1553 1555 1556 1558 1559 1560 1562 1564 1566 1568 1570 1572 1573 1574 1576 1577 1577 1578 1579 1579 1580 1581 1581
1504 1507 1510 1513 1517 1520 1522 1525 1528 1530 1532 1534 1536 1538 1540 1542 1544 1546 1547 1549 1551 1552 1554 1555 1556 1558 1560 1563 1565 1567 1569 1570 1571 1572 1573 1574 1575 1575 1576 1577 1578 1578
1500 1503 1506 1509 1513 1516 1519 1522 1524 1527 1528 1530 1532 1534 1536 1538 1540 1541 1543 1545 1547 1548 1550 1551 1553 1555 1557 1559 1561 1563 1565 1567 1568 1569 1569 1570 1571 1572 1573 1573 1574 1575
1496 1499 1502 1506 1509 1512 1515 1518 1520 1522 1524 1526 1529 1531 1533 1534 1536 1537 1539 1541 1543 1544 1546 1547 1549 1551 1554 1556 1558 1560 1562 1563 1564 1565 1565 1566 1567 1568 1569 1570 1570 1571
1493 1496 1499 1502 1505 1509 1511 1514 1516 1518 1520 1523 1525 1527 1528 1530 1532 1534 1535 1537 1539 1540 1542 1544 1545 1547 1550 1552 1554 1556 1558 1559 1560 1561 1562 1562 1563 1564 1565 1566 1567 1567
1489 1492 1495 1498 1502 1505 1507 1510 1512 1514 1517 1519 1521 1523 1524 1526 1529 1530 1531 1533 1535 1536 1538 1539 1541 1543 1546 1548 1550 1552 1554 1555 1556 1557 1558 1558 1559 1560 1561 1562 1563 1563
1485 1488 1492 1495 1498 1501 1503 1505 1508 1510 1513 1516 1518 1519 1521 1523 1525 1526 1528 1529 1531 1533 1534 1535 1537 1539 1541 1544 1546 1548 1550 1551 1551 1552 1553 1554 1555 1556 1557 1558 1559 1559
1481 1485 1488 1491 1494 1496 1499 1501 1504 1507 1510 1512 1514 1516 1517 1519 1521 1522 1524 1526 1527 1528 1529 1531 1533 1535 1537 1539 1542 1544 1545 1546 1547 1548 1549 1550 1551 1552 1553 1554 1554 1555
1478 1481 1484 1488 1490 1492 1495 1498 1501 1503 1506 1508 1510 1512 1513 1515 1517 1519 1520 1522 1523 1524 1525 1527 1529 1530 1533 1535 1537 1539 1540 1541 1542 1543 1544 1545 1546 1548 1548 1549 1550 1551
1475 1478 1481 1484 1486 1489 1492 1495 1497 1500 1502 1504 1506 1508 1510 1512 1514 1515 1516 1517 1519 1520 1522 1523 1524 1526 1528 1530 1532 1534 1535 1537 1538 1539 1539 1540 1542 1543 1544 1545 1545 1546
1473 1475 1478 1481 1483 1486 1489 1492 1494 1497 1499 1501 1503 1505 1507 1508 1509 1511 1512 1513 1515 1516 1518 1519 1520 1522 1524 1526 1528 1529 1530 1532 1533 1533 1534 1536 1537 1539 1540 1540 1541 1541